This demonstration page uses our WeatherBlox Daily Observations layout. Learn more.

Left ArrowRight Arrow

Hourly Observations for June 8, 2019

Temp ( °F °C ) Dew Point ( °F °C ) Humidity (%) Winds ( mph kmh ) Pressure ( in mb ) Visibility ( mi km ) Precip ( " mm )
12:56 am 00:56 Clear 69 20.6 59 15 70 70 SSE 10 17 29.82 1010 10 16 0.00 0.00
1:56 am 01:56 Clear 70 21.1 60 15.6 71 71 S 13 20 29.81 1010 10 16 0.00 0.00
2:56 am 02:56 Clear 68 20 60 15.6 76 76 S 8 13 29.84 1010 10 16 0.00 0.00
3:56 am 03:56 Clear 69 20.6 60 15.6 73 73 SSE 13 20 29.81 1010 10 16 0.00 0.00
4:56 am 04:56 Clear 69 20.6 59 15 70 70 S 15 24 29.81 1010 10 16 0.00 0.00
5:56 am 05:56 Clear 67 19.4 60 15.6 79 79 SSE 15 24 29.81 1009 10 16 0.00 0.00
6:56 am 06:56 Sunny 67 19.4 60 15.6 79 79 SSE 14 22 29.81 1010 10 16 0.00 0.00
7:56 am 07:56 Sunny 71 21.7 62 16.7 73 73 S 16 26 29.82 1010 10 16 0.00 0.00
8:56 am 08:56 Sunny 74 23.3 62 16.7 67 67 S 16 26 29.83 1010 10 16 0.00 0.00
9:56 am 09:56 Sunny 77 25 64 17.8 64 64 S 18 30 29.84 1011 10 16 0.00 0.00
10:56 am 10:56 Mostly Cloudy 80 26.7 63 17.2 56 56 S 21 33 29.83 1010 10 16 0.00 0.00
11:56 am 11:56 Partly Cloudy 81 27.2 63 17.2 54 54 S 22 35 29.82 1010 10 16 0.00 0.00
12:56 pm 12:56 Partly Cloudy 82 27.8 61 16.1 49 49 SSE 20 31 29.81 1010 10 16 0.00 0.00
1:56 pm 13:56 Partly Cloudy 83 28.3 62 16.7 49 49 SSE 21 33 29.80 1009 10 16 0.00 0.00
2:56 pm 14:56 Mostly Sunny 85 29.4 61 16.1 45 45 S 24 39 29.78 1009 10 16 0.00 0.00
3:56 pm 15:56 Mostly Cloudy 85 29.4 62 16.7 46 46 SSE 21 33 29.78 1008 10 16 0.00 0.00
4:56 pm 16:56 Sunny 85 29.4 62 16.7 46 46 SSE 22 35 29.74 1007 10 16 0.00 0.00
5:56 pm 17:56 Mostly Cloudy 85 29.4 62 16.7 46 46 SSE 18 30 29.75 1008 10 16 0.00 0.00
6:56 pm 18:56 Mostly Cloudy 82 27.8 61 16.1 49 49 SSE 16 26 29.78 1008 10 16 0.00 0.00
7:56 pm 19:56 Mostly Sunny 80 26.7 62 16.7 54 54 SE 10 17 29.78 1008 10 16 0.00 0.00
8:42 pm 20:42 Cloudy with Thunderstorms 79 26 61 16 54 54 SE 9 15 29.74 1007 7 11 0.00 0.00
8:56 pm 20:56 Cloudy with Nearby Thunderstorms 79 26.1 61 16.1 54 54 SE 9 15 29.80 1009 10 16 0.00 0.00
9:35 pm 21:35 Cloudy with Strong Thunderstorms 64 18 63 17 94 94 N 24 39 29.92 1013 6 10 0.00 0.00
9:39 pm 21:39 Cloudy with Strong Thunderstorms 64 18 63 17 94 94 N 18 30 29.92 1013 3 5 0.00 0.00
9:43 pm 21:43 Cloudy with Strong Thunderstorms 64 18 63 17 94 94 N 21 33 29.88 1012 2 3 0.38 9.65
9:47 pm 21:47 Cloudy with Strong Thunderstorms 64 18 63 17 94 94 NNE 14 22 29.90 1013 2 3 0.39 9.91
9:51 pm 21:51 Cloudy with Strong Thunderstorms 64 18 63 17 94 94 ENE 14 22 29.89 1012 3 5 0.00 0.00
9:56 pm 21:56 Cloudy with Strong Thunderstorms 65 18.3 63 17.2 93 93 E 28 44 29.85 1011 5 8 0.52 13.21
10:03 pm 22:03 Cloudy with Thunderstorms 64 18 63 17 94 94 E 36 57 29.83 1010 4 6 0.04 1.02
10:17 pm 22:17 Cloudy with Nearby Thunderstorms 64 18 63 17 94 94 ESE 16 26 29.87 1012 10 16 0.05 1.27
10:20 pm 22:20 Cloudy with Light Rain 64 18 63 17 94 94 E 21 33 29.87 1012 10 16 0.05 1.27
10:56 pm 22:56 Mostly Clear 65 18.3 62 16.7 90 90 NE 13 20 29.89 1012 10 16 0.05 1.27
11:56 pm 23:56 Clear 64 17.8 62 16.7 93 93 NNE 9 15 29.92 1013 10 16 0.00 0.00

Powered by AerisWeather